PAL212 RPMD-RPLL

Flight info

Callsign PAL212
Flight time 1h 25m
Altitude 34000
Route ANKIN3P ANKIN B473 LAIYA LAIYA7R
Aircraft A333/H-SDE3GHIJ2J3J5M1RVWXY/LB2D1

Departure

Time 2026-05-07 15:37
Airport Francisco Bangoy International Airport (RPMD)

Arrival

Time 2026-05-07 17:02
Airport Ninoy Aquino International Airport (RPLL)
Time Latitude Longitude Altitude Speed Heading
2026-05-07 15:37 7.25791 125.47085 8747 ft 298 kts 319°
2026-05-07 15:37 7.27431 125.45574 9519 ft 303 kts 319°
2026-05-07 15:37 7.29010 125.44118 10231 ft 308 kts 319°
2026-05-07 15:37 7.30642 125.42615 10572 ft 327 kts 319°
2026-05-07 15:38 7.32346 125.41046 10813 ft 346 kts 319°
2026-05-07 15:38 7.34184 125.39400 11171 ft 358 kts 324°
2026-05-07 15:38 7.36257 125.37925 11756 ft 363 kts 328°
2026-05-07 15:38 7.38348 125.36528 12412 ft 366 kts 328°
2026-05-07 15:39 7.40484 125.35111 13061 ft 369 kts 328°
2026-05-07 15:39 7.42642 125.33677 13716 ft 373 kts 328°
2026-05-07 15:39 7.44814 125.32230 14266 ft 377 kts 328°
2026-05-07 15:39 7.47020 125.30757 14821 ft 381 kts 328°
2026-05-07 15:40 7.49245 125.29270 15396 ft 384 kts 328°
2026-05-07 15:40 7.51457 125.27791 15959 ft 387 kts 328°
2026-05-07 15:40 7.53740 125.26265 16513 ft 390 kts 328°
2026-05-07 15:40 7.56007 125.24748 17074 ft 394 kts 328°
2026-05-07 15:41 7.58276 125.23230 17610 ft 397 kts 328°
2026-05-07 15:41 7.60588 125.21682 18146 ft 400 kts 328°
2026-05-07 15:41 7.62908 125.20130 18598 ft 403 kts 328°
2026-05-07 15:41 7.65263 125.18553 19056 ft 406 kts 328°
2026-05-07 15:42 7.67627 125.16970 19510 ft 408 kts 328°
2026-05-07 15:42 7.69981 125.15393 19937 ft 411 kts 328°
2026-05-07 15:42 7.72361 125.13799 20365 ft 414 kts 328°
2026-05-07 15:42 7.74771 125.12185 20805 ft 416 kts 328°
2026-05-07 15:43 7.77198 125.10558 21227 ft 419 kts 328°
2026-05-07 15:43 7.79630 125.08928 21629 ft 423 kts 328°
2026-05-07 15:43 7.82106 125.07269 22053 ft 426 kts 328°
2026-05-07 15:43 7.84576 125.05614 22472 ft 428 kts 328°
2026-05-07 15:44 7.87037 125.03964 22885 ft 431 kts 328°
2026-05-07 15:44 7.89530 125.02293 23282 ft 434 kts 328°
2026-05-07 15:44 7.92064 125.00593 23663 ft 436 kts 328°
2026-05-07 15:44 7.94606 124.98888 24006 ft 439 kts 328°
2026-05-07 15:45 7.97118 124.97130 24340 ft 442 kts 324°
2026-05-07 15:45 7.99569 124.95248 24662 ft 445 kts 323°
2026-05-07 15:45 8.02014 124.93285 24981 ft 448 kts 322°
2026-05-07 15:45 8.04438 124.91294 25402 ft 447 kts 321°
2026-05-07 15:46 8.09285 124.87291 25944 ft 456 kts 322°
2026-05-07 15:46 8.11709 124.85298 26377 ft 454 kts 321°
2026-05-07 15:46 8.14159 124.83290 26805 ft 454 kts 321°
2026-05-07 15:47 8.16617 124.81282 27121 ft 456 kts 321°
2026-05-07 15:47 8.19099 124.79258 27434 ft 459 kts 321°
2026-05-07 15:47 8.21598 124.77221 27770 ft 461 kts 321°
2026-05-07 15:47 8.24094 124.75186 28087 ft 462 kts 321°
2026-05-07 15:48 8.26601 124.73143 28389 ft 464 kts 321°
2026-05-07 15:48 8.29090 124.71114 28715 ft 466 kts 321°
2026-05-07 15:48 8.31622 124.69048 29016 ft 468 kts 321°
2026-05-07 15:48 8.34154 124.66982 29316 ft 470 kts 321°
2026-05-07 15:49 8.36702 124.64902 29600 ft 472 kts 321°
2026-05-07 15:49 8.39270 124.62807 29883 ft 474 kts 321°
2026-05-07 15:49 8.41959 124.60840 30138 ft 476 kts 327°
2026-05-07 15:49 8.43826 124.59672 30289 ft 478 kts 329°
2026-05-07 15:50 8.47636 124.57389 30517 ft 482 kts 330°
2026-05-07 15:50 8.50553 124.55696 30775 ft 483 kts 330°
2026-05-07 15:50 8.53478 124.54017 31050 ft 484 kts 330°
2026-05-07 15:50 8.55462 124.52882 31228 ft 485 kts 330°
2026-05-07 15:51 8.58364 124.51221 31470 ft 486 kts 330°
2026-05-07 15:51 8.61311 124.49531 31724 ft 487 kts 330°
2026-05-07 15:51 8.64260 124.47834 32016 ft 487 kts 330°
2026-05-07 15:51 8.67204 124.46138 32361 ft 486 kts 330°
2026-05-07 15:52 8.70140 124.44443 32676 ft 486 kts 330°
2026-05-07 15:52 8.73071 124.42750 33024 ft 484 kts 330°
2026-05-07 15:52 8.75996 124.41059 33409 ft 483 kts 331°
2026-05-07 15:52 8.78922 124.39368 33563 ft 486 kts 331°
2026-05-07 15:53 8.81875 124.37662 33789 ft 487 kts 331°
2026-05-07 15:53 8.84790 124.35976 33851 ft 476 kts 331°
2026-05-07 15:53 8.87604 124.34348 33860 ft 462 kts 330°
2026-05-07 15:54 8.93045 124.31199 33854 ft 450 kts 331°
2026-05-07 15:54 8.98501 124.28045 33853 ft 452 kts 331°
2026-05-07 15:55 9.03978 124.24876 33853 ft 453 kts 331°
2026-05-07 15:55 9.09449 124.21704 33854 ft 453 kts 332°
2026-05-07 15:56 9.14892 124.18547 33857 ft 455 kts 331°
2026-05-07 15:56 9.20389 124.15356 33857 ft 454 kts 331°
2026-05-07 15:57 9.25851 124.12183 33855 ft 455 kts 332°
2026-05-07 15:57 9.31360 124.08984 33858 ft 457 kts 331°
2026-05-07 15:58 9.36875 124.05780 33856 ft 456 kts 331°
2026-05-07 15:58 9.42355 124.02612 33860 ft 455 kts 330°
2026-05-07 15:59 9.47880 123.99426 33859 ft 453 kts 330°
2026-05-07 15:59 9.53319 123.96274 33859 ft 453 kts 330°
2026-05-07 16:00 9.58785 123.93098 33861 ft 452 kts 330°
2026-05-07 16:00 9.64226 123.89934 33860 ft 451 kts 330°
2026-05-07 16:01 9.69681 123.86763 33858 ft 450 kts 330°
2026-05-07 16:01 9.75075 123.83628 33856 ft 450 kts 330°
2026-05-07 16:02 9.80523 123.80459 33857 ft 451 kts 330°
2026-05-07 16:02 9.85963 123.77294 33871 ft 451 kts 330°
2026-05-07 16:03 9.91402 123.74128 33871 ft 451 kts 330°
2026-05-07 16:03 9.96832 123.70961 33879 ft 450 kts 330°
2026-05-07 16:04 10.02260 123.67794 33870 ft 450 kts 329°
2026-05-07 16:04 10.07685 123.64628 33879 ft 453 kts 328°
2026-05-07 16:05 10.13140 123.61443 33879 ft 451 kts 329°
2026-05-07 16:05 10.18578 123.58267 33878 ft 450 kts 328°
2026-05-07 16:06 10.24003 123.55097 33881 ft 449 kts 329°
2026-05-07 16:06 10.29420 123.51932 33879 ft 449 kts 328°
2026-05-07 16:07 10.34821 123.48779 33882 ft 450 kts 328°
2026-05-07 16:07 10.40250 123.45612 33883 ft 450 kts 329°
2026-05-07 16:08 10.45682 123.42441 33883 ft 450 kts 329°
2026-05-07 16:08 10.51087 123.39284 33886 ft 450 kts 329°
2026-05-07 16:09 10.56521 123.36109 33884 ft 450 kts 329°
2026-05-07 16:09 10.61950 123.32936 33887 ft 450 kts 329°
2026-05-07 16:10 10.67384 123.29761 33883 ft 450 kts 329°
2026-05-07 16:10 10.72822 123.26584 33885 ft 450 kts 329°
2026-05-07 16:11 10.78221 123.23423 33878 ft 451 kts 329°
2026-05-07 16:11 10.83662 123.20231 33877 ft 452 kts 329°
2026-05-07 16:12 10.89111 123.17035 33876 ft 451 kts 329°
2026-05-07 16:12 10.94550 123.13843 33870 ft 452 kts 329°
2026-05-07 16:13 11.00018 123.10634 33870 ft 452 kts 328°
2026-05-07 16:13 11.05471 123.07432 33871 ft 452 kts 328°
2026-05-07 16:14 11.10888 123.04250 33871 ft 453 kts 328°
2026-05-07 16:14 11.16355 123.01038 33870 ft 454 kts 328°
2026-05-07 16:15 11.21821 122.97825 33870 ft 454 kts 328°
2026-05-07 16:15 11.27292 122.94607 33874 ft 454 kts 328°
2026-05-07 16:16 11.32771 122.91384 33871 ft 454 kts 328°
2026-05-07 16:16 11.38252 122.88159 33870 ft 454 kts 328°
2026-05-07 16:17 11.43686 122.84957 33870 ft 453 kts 328°
2026-05-07 16:17 11.49124 122.81752 33873 ft 451 kts 328°
2026-05-07 16:18 11.54562 122.78547 33870 ft 451 kts 328°
2026-05-07 16:18 11.59995 122.75323 33870 ft 451 kts 327°
2026-05-07 16:19 11.65246 122.71892 33870 ft 450 kts 324°
2026-05-07 16:19 11.70467 122.68324 33867 ft 450 kts 324°
2026-05-07 16:20 11.75686 122.64766 33868 ft 450 kts 324°
2026-05-07 16:20 11.80878 122.61256 33867 ft 450 kts 324°
2026-05-07 16:21 11.86099 122.57737 33864 ft 450 kts 324°
2026-05-07 16:21 11.91334 122.54209 33864 ft 450 kts 324°
2026-05-07 16:22 11.96562 122.50684 33865 ft 450 kts 324°
2026-05-07 16:22 12.01758 122.47177 33865 ft 450 kts 324°
2026-05-07 16:23 12.06973 122.43656 33873 ft 450 kts 324°
2026-05-07 16:23 12.12217 122.40113 33864 ft 449 kts 324°
2026-05-07 16:24 12.17389 122.36617 33865 ft 449 kts 324°
2026-05-07 16:24 12.22618 122.33082 33867 ft 449 kts 324°
2026-05-07 16:25 12.27802 122.29575 33867 ft 449 kts 324°
2026-05-07 16:25 12.33020 122.26043 33865 ft 449 kts 324°
2026-05-07 16:26 12.38216 122.22505 33864 ft 449 kts 323°
2026-05-07 16:26 12.43370 122.18928 33865 ft 449 kts 323°
2026-05-07 16:27 12.48530 122.15342 33864 ft 449 kts 323°
2026-05-07 16:27 12.53697 122.11751 33805 ft 448 kts 323°
2026-05-07 16:27 12.56291 122.09947 33119 ft 452 kts 323°
2026-05-07 16:28 12.58918 122.08119 32170 ft 461 kts 324°
2026-05-07 16:28 12.61609 122.06247 31273 ft 470 kts 324°
2026-05-07 16:28 12.64321 122.04361 30574 ft 473 kts 324°
2026-05-07 16:28 12.67047 122.02466 30018 ft 472 kts 324°
2026-05-07 16:29 12.69751 122.00585 29440 ft 469 kts 324°
2026-05-07 16:29 12.72435 121.98716 28921 ft 465 kts 325°
2026-05-07 16:29 12.75105 121.96858 28460 ft 460 kts 325°
2026-05-07 16:29 12.77711 121.95043 28048 ft 455 kts 325°
2026-05-07 16:30 12.80305 121.93236 27843 ft 444 kts 326°
2026-05-07 16:30 12.82823 121.91482 27663 ft 434 kts 325°
2026-05-07 16:30 12.85292 121.89762 27466 ft 421 kts 325°
2026-05-07 16:30 12.87656 121.88114 27135 ft 404 kts 326°
2026-05-07 16:31 12.89944 121.86518 26659 ft 392 kts 326°
2026-05-07 16:31 12.92185 121.84954 26025 ft 386 kts 326°
2026-05-07 16:31 12.94392 121.83414 25339 ft 383 kts 326°
2026-05-07 16:31 12.96566 121.81896 24659 ft 380 kts 327°
2026-05-07 16:32 12.98767 121.80360 24029 ft 376 kts 327°
2026-05-07 16:32 13.00893 121.78876 23426 ft 372 kts 327°
2026-05-07 16:32 13.03026 121.77386 22664 ft 369 kts 327°
2026-05-07 16:32 13.05133 121.75915 21947 ft 365 kts 327°
2026-05-07 16:33 13.07230 121.74450 21255 ft 361 kts 327°
2026-05-07 16:33 13.09294 121.73008 20584 ft 358 kts 327°
2026-05-07 16:33 13.11340 121.71579 19909 ft 354 kts 327°
2026-05-07 16:33 13.13354 121.70171 19264 ft 351 kts 327°
2026-05-07 16:34 13.15361 121.68768 18625 ft 348 kts 327°
2026-05-07 16:34 13.17351 121.67377 17980 ft 345 kts 327°
2026-05-07 16:34 13.19333 121.65991 17264 ft 341 kts 327°
2026-05-07 16:34 13.21297 121.64617 16585 ft 338 kts 327°
2026-05-07 16:35 13.23283 121.63230 16085 ft 362 kts 327°
2026-05-07 16:35 13.25436 121.61727 15886 ft 382 kts 327°
2026-05-07 16:35 13.27648 121.60179 15871 ft 385 kts 327°
2026-05-07 16:35 13.29862 121.58628 15878 ft 384 kts 327°
2026-05-07 16:36 13.32061 121.57087 15879 ft 383 kts 327°
2026-05-07 16:36 13.34232 121.55566 15879 ft 383 kts 327°
2026-05-07 16:36 13.36464 121.54001 15878 ft 383 kts 327°
2026-05-07 16:36 13.38647 121.52472 15878 ft 383 kts 327°
2026-05-07 16:37 13.40833 121.50939 15882 ft 374 kts 327°
2026-05-07 16:37 13.42938 121.49461 15787 ft 359 kts 327°
2026-05-07 16:37 13.44946 121.48052 15549 ft 341 kts 327°
2026-05-07 16:37 13.46884 121.46692 15054 ft 331 kts 327°
2026-05-07 16:38 13.48754 121.45381 14469 ft 326 kts 327°
2026-05-07 16:38 13.50581 121.44098 14188 ft 311 kts 327°
2026-05-07 16:38 13.52336 121.42867 13820 ft 301 kts 327°
2026-05-07 16:38 13.54052 121.41663 13299 ft 297 kts 327°
2026-05-07 16:39 13.55755 121.40468 12722 ft 294 kts 328°
2026-05-07 16:39 13.57436 121.39270 12211 ft 292 kts 327°
2026-05-07 16:39 13.58527 121.38466 12054 ft 291 kts 326°
2026-05-07 16:39 13.60726 121.36832 11962 ft 293 kts 326°
2026-05-07 16:40 13.62358 121.35617 11751 ft 292 kts 326°
2026-05-07 16:40 13.63468 121.34789 11586 ft 290 kts 326°
2026-05-07 16:40 13.65607 121.33195 11278 ft 284 kts 326°
2026-05-07 16:40 13.67202 121.32006 11041 ft 281 kts 326°
2026-05-07 16:41 13.68246 121.31227 10888 ft 278 kts 326°
2026-05-07 16:41 13.69808 121.30063 10662 ft 275 kts 326°
2026-05-07 16:41 13.71349 121.28915 10428 ft 272 kts 326°
2026-05-07 16:41 13.72874 121.27778 10197 ft 269 kts 327°
2026-05-07 16:42 13.74383 121.26653 9980 ft 266 kts 327°
2026-05-07 16:42 13.75874 121.25541 9746 ft 263 kts 327°
2026-05-07 16:42 13.77332 121.24453 9486 ft 262 kts 326°
2026-05-07 16:42 13.78800 121.23358 9231 ft 260 kts 327°
2026-05-07 16:43 13.80262 121.22268 9034 ft 258 kts 327°
2026-05-07 16:43 13.81712 121.21186 8983 ft 258 kts 327°
2026-05-07 16:43 13.83170 121.20099 8983 ft 258 kts 327°
2026-05-07 16:43 13.84622 121.19015 9004 ft 258 kts 327°
2026-05-07 16:44 13.86102 121.17913 9002 ft 274 kts 327°
2026-05-07 16:44 13.87722 121.16709 8978 ft 296 kts 327°
2026-05-07 16:44 13.89407 121.15452 9001 ft 301 kts 326°
2026-05-07 16:44 13.91106 121.14180 8985 ft 302 kts 326°
2026-05-07 16:45 13.92810 121.12905 8995 ft 302 kts 326°
2026-05-07 16:45 13.94511 121.11632 8982 ft 302 kts 326°
2026-05-07 16:45 13.96193 121.10374 8992 ft 302 kts 326°
2026-05-07 16:45 13.97916 121.09086 8983 ft 302 kts 326°
2026-05-07 16:46 13.99612 121.07819 9001 ft 302 kts 326°
2026-05-07 16:46 14.01298 121.06558 8920 ft 302 kts 326°
2026-05-07 16:46 14.02999 121.05285 8683 ft 301 kts 326°
2026-05-07 16:46 14.04696 121.04016 8438 ft 300 kts 326°
2026-05-07 16:47 14.06383 121.02754 8185 ft 299 kts 326°
2026-05-07 16:47 14.08064 121.01496 7953 ft 298 kts 326°
2026-05-07 16:47 14.09756 121.00231 7577 ft 300 kts 326°
2026-05-07 16:47 14.11421 120.98983 7405 ft 292 kts 327°
2026-05-07 16:48 14.13030 120.97774 7294 ft 278 kts 327°
2026-05-07 16:48 14.14551 120.96633 6955 ft 269 kts 327°
2026-05-07 16:48 14.16026 120.95528 6718 ft 256 kts 327°
2026-05-07 16:48 14.17451 120.94518 6438 ft 242 kts 331°
2026-05-07 16:49 14.18886 120.93636 6046 ft 240 kts 333°
2026-05-07 16:49 14.20336 120.92780 5726 ft 239 kts 334°
2026-05-07 16:49 14.21778 120.91932 5415 ft 238 kts 334°
2026-05-07 16:49 14.23220 120.91084 5100 ft 238 kts 334°
2026-05-07 16:50 14.24608 120.90145 5006 ft 240 kts 323°
2026-05-07 16:50 14.25661 120.88800 4994 ft 245 kts 299°
2026-05-07 16:50 14.26090 120.87096 4993 ft 248 kts 272°
2026-05-07 16:50 14.25774 120.85359 4996 ft 248 kts 246°
2026-05-07 16:51 14.25004 120.83797 4993 ft 248 kts 239°
2026-05-07 16:51 14.24127 120.82256 4988 ft 249 kts 238°
2026-05-07 16:51 14.23248 120.80723 4997 ft 249 kts 238°
2026-05-07 16:51 14.22381 120.79174 4986 ft 250 kts 242°
2026-05-07 16:52 14.21867 120.77469 4955 ft 251 kts 263°
2026-05-07 16:52 14.22093 120.75698 4592 ft 251 kts 297°
2026-05-07 16:52 14.23217 120.74394 4276 ft 240 kts 329°
2026-05-07 16:52 14.24625 120.73542 4044 ft 235 kts 337°
2026-05-07 16:53 14.26077 120.72772 3990 ft 236 kts 338°
2026-05-07 16:53 14.27539 120.72004 3991 ft 236 kts 338°
2026-05-07 16:53 14.29005 120.71226 3999 ft 236 kts 337°
2026-05-07 16:53 14.30476 120.70482 3997 ft 234 kts 345°
2026-05-07 16:54 14.32042 120.70290 3997 ft 222 kts 17°
2026-05-07 16:54 14.33368 120.70990 3949 ft 213 kts 38°
2026-05-07 16:54 14.34513 120.71951 3947 ft 211 kts 49°
2026-05-07 16:54 14.35456 120.73107 3907 ft 210 kts 53°
2026-05-07 16:55 14.36286 120.74330 3903 ft 207 kts 65°
2026-05-07 16:55 14.36851 120.75639 3901 ft 194 kts 69°
2026-05-07 16:55 14.37368 120.76857 3931 ft 175 kts 66°
2026-05-07 16:55 14.37902 120.77917 3939 ft 159 kts 64°
2026-05-07 16:56 14.38431 120.78899 3951 ft 155 kts 64°
2026-05-07 16:56 14.38957 120.79871 3955 ft 154 kts 64°
2026-05-07 16:56 14.39956 120.81719 3940 ft 154 kts 63°
2026-05-07 16:57 14.40476 120.82682 3785 ft 152 kts 64°
2026-05-07 16:57 14.40982 120.83624 3583 ft 153 kts 64°
2026-05-07 16:57 14.41508 120.84602 3349 ft 152 kts 63°
2026-05-07 16:57 14.42014 120.85542 3151 ft 147 kts 63°
2026-05-07 16:58 14.42493 120.86433 2960 ft 142 kts 63°
2026-05-07 16:58 14.42975 120.87329 2777 ft 144 kts 64°
2026-05-07 16:58 14.43458 120.88226 2595 ft 143 kts 64°
2026-05-07 16:58 14.43940 120.89122 2392 ft 143 kts 61°
2026-05-07 16:59 14.44419 120.90012 2233 ft 142 kts 61°
2026-05-07 16:59 14.44897 120.90902 2039 ft 141 kts 61°
2026-05-07 16:59 14.45371 120.91783 1841 ft 141 kts 62°
2026-05-07 16:59 14.45841 120.92658 1678 ft 141 kts 63°
2026-05-07 17:00 14.46315 120.93539 1494 ft 140 kts 63°
2026-05-07 17:00 14.46787 120.94417 1297 ft 139 kts 63°
2026-05-07 17:00 14.47257 120.95291 1105 ft 139 kts 62°
2026-05-07 17:00 14.47728 120.96166 953 ft 139 kts 62°
2026-05-07 17:01 14.48196 120.97037 768 ft 139 kts 62°
2026-05-07 17:01 14.48659 120.97900 623 ft 138 kts 62°
2026-05-07 17:01 14.49122 120.98779 424 ft 138 kts 63°
2026-05-07 17:01 14.49589 120.99648 237 ft 138 kts 61°
2026-05-07 17:02 14.50064 121.00505 86 ft 136 kts 63°
2026-05-07 17:02 14.50463 121.01229 65 ft 84 kts 60°
2026-05-07 17:02 14.50644 121.01551 66 ft 40 kts 60°
2026-05-07 17:02 14.50810 121.01754 61 ft 24 kts 37°
2026-05-07 17:03 14.50910 121.01766 63 ft 5 kts 310°
2026-05-07 17:03 14.50909 121.01755 64 ft 1 kts 254°
2026-05-07 17:03 14.50903 121.01742 61 ft 3 kts 247°
2026-05-07 17:03 14.50890 121.01716 61 ft 5 kts 245°
2026-05-07 17:04 14.50890 121.01680 65 ft 5 kts 285°
2026-05-07 17:04 14.50909 121.01645 65 ft 6 kts 291°
2026-05-07 17:04 14.50905 121.01601 70 ft 7 kts 253°
2026-05-07 17:04 14.50883 121.01554 62 ft 8 kts 240°
2026-05-07 17:05 14.50853 121.01499 62 ft 10 kts 240°
2026-05-07 17:05 14.50839 121.01456 65 ft 2 kts 288°
2026-05-07 17:05 14.50849 121.01448 66 ft 2 kts 321°
2026-05-07 17:05 14.50860 121.01442 66 ft 3 kts 330°
2026-05-07 17:06 14.50882 121.01428 62 ft 5 kts 329°
2026-05-07 17:06 14.50910 121.01412 62 ft 0 kts 330°